Location: Chelers
(50.3752°N, 2.4849°E)
Time: 13:44:16
(UTC+00:00)

Daily predictions for brighter satellites

Satellite Brightness Start Highest point End
(mag) Time Altitude Azimuth Time Altitude Azimuth Time Altitude Azimuth
Cosmos 2344 4.4 20:26:29 10° NW 20:34:54 68° NE 20:46:26 10° ESE
Cosmos 2154 Rocket 4.4 20:37:16 10° N 20:43:21 51° ENE 20:49:21 10° SSE
COSMOS 2406 4.3 20:39:14 10° SSE 20:43:55 26° ESE 20:48:36 10° NE
Spot 2 Rocket 3.8 20:39:47 10° SE 20:44:45 56° ENE 20:49:46 10° N
Cosmos 1025 Rocket 4.1 20:41:29 10° SSW 20:45:38 49° WNW 20:49:51 10° N
SPOT 5 2.7 20:50:23 10° SSE 20:54:41 63° ENE 20:58:59 10° N
Cosmos 2084 Rocket 3.4 20:51:57 10° NW 20:55:49 67° NE 20:59:50 10° SE
Cosmos 1703 3.3 20:53:00 10° S 20:56:47 59° E 21:00:35 10° NNE
RESURS DK-1 2.7 20:52:43 10° NW 20:56:49 62° WSW 21:00:53 10° SSE
Cosmos 1452 Rocket 3.5 20:54:20 10° SSW 20:59:34 79° ESE 21:04:51 10° NNE
Cosmos 1833 Rocket 2.8 20:54:20 10° S 20:59:46 54° ESE 21:05:15 10° NE
CZ-4B R/B 2.1 20:58:34 10° N 21:01:22 46° WNW 21:04:08 10° SSW
Terra 2.2 20:56:47 10° SE 21:01:24 53° ENE 21:06:04 10° N
FALCON 9 DEB 3.5 21:02:00 10° WNW 21:05:14 59° N 21:08:29 10° E
Helios 1A Rocket 3.0 21:01:24 10° SSE 21:05:28 74° ENE 21:09:35 10° N
Cosmos 1110 Rocket 4.1 21:00:25 10° S 21:05:35 59° ESE 21:10:49 10° NNE
Cosmos 2322 Rocket 4.3 21:03:20 10° N 21:07:22 19° NE 21:11:23 10° E
ERS-1 Rocket 3.0 21:02:56 10° SSE 21:07:57 76° ENE 21:13:00 10° NNW
Resurs 01 Rocket 3.4 21:04:47 10° SSW 21:08:38 28° W 21:12:31 10° NW
Cosmos 2228 3.0 21:06:30 10° N 21:10:45 88° E 21:14:59 10° S
Cosmos 2058 Rocket 4.2 21:07:39 10° N 21:11:35 30° ENE 21:15:19 11° SE
Cosmos 2184 Rocket 4.2 21:08:28 10° NNW 21:14:39 78° W 21:20:51 10° S
Cosmos 1825 4.4 21:15:45 10° ESE 21:16:59 11° E 21:18:13 10° ENE
Lacrosse 5 4.1 21:14:08 10° W 21:17:01 15° WSW 21:19:53 10° SSW
Cosmos 1408 4.0 21:16:14 12° SE 21:18:25 21° E 21:21:05 10° NE
Cosmos 2278 4.5 21:13:28 10° NNW 21:18:57 44° NE 21:24:23 10° ESE
Cosmos 968 Rocket 3.7 21:16:46 10° NNW 21:21:57 63° ENE 21:26:36 13° SE
Cosmos 1328 4.0 21:22:08 10° S 21:26:03 55° E 21:29:58 10° NNE
USA 276 1.9 21:24:12 10° W 21:27:14 86° S 21:30:17 10° E
H-2A R/B 4.4 21:26:33 10° N 21:30:16 27° WNW 21:34:00 10° WSW
SJ 16-02 3.7 21:28:17 10° N 21:30:55 15° NE 21:33:33 10° E
Cosmos 1867 3.7 21:26:11 10° NW 21:31:42 79° NE 21:36:30 14° SE
Cosmos 2082 Rocket 2.6 21:28:16 10° S 21:33:37 43° ESE 21:38:59 10° NE
USA 267 4.1 21:31:22 10° ENE 21:36:50 28° SE 21:42:16 10° S
Cosmos 1606 Rocket 3.7 21:35:08 10° NNW 21:39:28 73° W 21:43:23 12° S
ARIANE 5 R/B 2.6 21:35:43 14° SSE 21:39:34 87° ENE 21:44:00 10° NNW
GP-B 3.8 21:36:17 10° NNE 21:40:28 39° E 21:43:35 16° SSE
Cosmos 2341 Rocket 4.2 21:35:27 10° N 21:41:45 65° ENE 21:47:01 15° SSE
Cosmos 2360 Rocket 4.2 21:39:08 10° NNW 21:43:30 22° NE 21:47:50 10° E
Meteor 1-21 Rocket 4.4 21:38:43 10° SSW 21:44:20 79° WNW 21:50:05 10° N
Cosmos 192 4.3 21:43:54 10° SSW 21:48:46 70° ESE 21:53:40 10° NNE
Okean 1-7 Rocket 4.3 21:58:40 19° SSE 22:01:22 38° E 22:05:32 10° NNE
SAR-Lupe-1 4.3 21:58:02 10° NNE 22:01:32 50° E 22:03:39 21° S
Cosmos 1726 Rocket 4.0 21:57:55 10° NNW 22:02:10 56° W 22:05:41 14° S
Cosmos 1892 2.7 22:02:06 20° S 22:04:33 62° E 22:08:19 10° NNE
Cosmos 2181 Rocket 4.1 22:07:21 17° S 22:12:09 62° E 22:18:18 10° NNE
USA 234 3.5 22:06:30 10° ESE 22:13:02 72° NNE 22:19:35 10° WNW
Cosmos 1633 4.1 22:12:09 18° ESE 22:13:18 21° E 22:16:00 10° NE
Cosmos 1697 Rocket 4.1 22:12:03 10° NW 22:16:45 28° WSW 22:21:16 11° SSW
Cosmos 1980 Rocket 2.7 22:11:19 10° NW 22:16:50 52° WSW 22:20:52 18° S
SL-16 R/B 2.7 22:11:21 10° NNW 22:16:57 54° NE 22:21:23 16° SE
Cosmos 1486 Rocket 4.0 22:12:16 10° NNW 22:17:31 81° ENE 22:21:05 21° SSE
Cosmos 1992 Rocket 4.2 22:15:19 18° S 22:18:59 52° ESE 22:24:04 10° NNE
X-37B 2.9 22:18:07 10° SW 22:18:13 10° SW 22:18:13 10° SW
Cosmos 1812 Rocket 4.3 22:15:15 10° N 22:19:31 41° ENE 22:22:08 20° SE
Cosmos 2369 4.5 22:15:00 10° NW 22:20:24 44° WSW 22:24:30 17° S
Cosmos 2219 Rocket 4.4 22:16:23 10° N 22:20:32 20° NE 22:24:39 10° E
Cosmos 1932 4.5 22:14:34 10° SSW 22:20:39 61° ESE 22:26:54 10° NE
TIMED 4.5 22:21:54 14° SSW 22:25:42 90° SE 22:30:05 10° NNE
COSMOS 2406 3.7 22:22:06 10° SW 22:27:48 63° WNW 22:33:32 10° NNE
Cosmos-2242 3.8 22:24:51 10° N 22:28:52 40° ENE 22:31:12 21° SE
ATLAS 5 CENTAUR R/B 1.4 22:29:23 23° S 22:31:26 49° SE 22:35:30 10° NE
Cosmos 1869 3.2 22:29:11 10° N 22:33:05 87° W 22:35:09 27° S
Cosmos 807 4.3 22:30:21 10° N 22:33:26 57° ENE 22:34:25 35° SE
Cosmos 1602 Rocket 4.0 22:32:11 25° SSE 22:34:19 45° E 22:38:27 10° NNE
In-Cosmos 22 Rocket 4.1 22:30:23 17° S 22:34:41 87° E 22:40:08 10° NNE
ERS-2 4.3 22:35:19 10° ENE 22:36:56 13° E 22:37:40 12° ESE
Meteor 1-27 4.3 22:33:19 10° NNW 22:38:53 74° W 22:42:35 22° S
Terra 3.7 22:35:44 10° SW 22:39:28 23° W 22:43:13 10° NW
FALCON 9 DEB 3.3 22:38:19 10° WNW 22:41:29 46° SSW 22:42:17 37° SSE
ASTEX 1 3.9 22:36:56 10° N 22:41:52 60° W 22:45:50 16° SSW
ALOS 2 3.2 22:39:48 22° SE 22:42:20 49° ENE 22:46:35 10° N
Cosmos 1833 Rocket 4.4 22:38:54 10° WSW 22:43:58 34° NW 22:49:05 10° NNE
Cosmos 1354 Rocket 4.1 22:40:26 10° NNW 22:45:46 71° ENE 22:49:06 23° SE
BREEZE-M DEB (TANK) 3.5 22:44:46 10° W 22:47:49 76° S 22:58:52 10° ESE
SL-8 Rocket 4.5 22:42:23 10° NNW 22:48:26 54° W 22:53:01 18° SSW
Cosmos 2058 Rocket 4.4 22:45:37 10° NNW 22:49:34 33° W 22:52:35 15° SSW
ADEOS Rocket 3.7 22:45:43 20° SSE 22:51:11 70° ENE 22:58:55 10° NNW
Cosmos 1825 2.3 22:49:40 24° SSW 22:51:46 68° WNW 22:55:31 10° N
Cosmos 2322 Rocket 2.4 22:46:47 10° NNW 22:52:29 70° ENE 22:56:24 21° SE
Cosmos 1408 4.2 22:50:12 12° SW 22:52:57 28° WNW 22:56:01 10° N
Cosmos 1503 Rocket 4.0 22:50:13 10° NNW 22:55:33 83° WSW 22:58:35 26° SSE
Cosmos 1626 Rocket 3.6 22:54:43 23° SSW 22:57:22 73° W 23:01:45 10° N
USA 276 2.3 22:59:58 10° W 23:02:50 43° SSW 23:02:50 43° SSW
Cosmos 1777 Rocket 4.2 22:58:16 10° NNW 23:03:35 67° ENE 23:06:53 23° SE
Cosmos 2333 Rocket 3.2 23:02:08 10° NNW 23:07:37 42° NE 23:12:52 11° ESE
Cosmos 1825 Rocket 4.0 23:08:17 29° SSE 23:10:05 47° E 23:14:16 10° NNE
SJ 16-02 1.3 23:05:42 10° NNW 23:10:10 89° ENE 23:12:19 30° SSE
Gbstr 26 Del rocket 4.0 23:11:09 27° SE 23:11:23 27° SE 23:15:34 10° E
Cosmos 1340 Rocket 3.9 23:13:04 26° SE 23:14:20 32° E 23:17:54 10° NNE
Cosmos 2082 Rocket 3.4 23:12:25 10° WSW 23:17:46 41° NW 23:23:09 10° NNE
Meteor 2-20 4.4 23:13:53 23° S 23:17:50 89° E 23:23:58 10° N
H-2A R/B 3.4 23:14:48 10° NNE 23:19:02 77° ESE 23:20:55 32° S
USA 267 3.2 23:13:57 10° ENE 23:20:32 78° SE 23:27:05 10° SW
Cosmos 2221 3.4 23:21:52 10° N 23:26:00 40° ENE 23:28:18 22° SE
Cosmos 1606 2.7 23:22:58 10° NNW 23:26:50 71° W 23:28:16 36° S
Cosmos 2058 3.0 23:26:08 34° SSE 23:27:51 66° E 23:32:00 10° NNE
Cosmos 2360 Rocket 2.2 23:22:40 10° NNW 23:28:23 83° ENE 23:31:59 24° SSE
Cosmos 1934 Rocket 4.0 23:23:14 10° N 23:29:19 72° ENE 23:33:06 25° SSE
Meteor 2-2 Rocket 4.4 23:35:02 10° NNW 23:41:04 84° W 23:44:36 27° S
Cosmos 44 3.8 23:41:21 30° SSE 23:42:40 37° ESE 23:46:46 10° NE
Cosmos 2237 4.5 23:38:24 10° NW 23:43:59 54° WSW 23:46:53 28° S
Meteor 2-20 Rocket 4.5 23:42:26 24° SSW 23:46:16 79° W 23:52:25 10° N
Cosmos 1633 4.0 23:45:55 19° WSW 23:47:39 28° WNW 23:50:43 10° N
Cosmos 1758 Rocket 4.4 23:45:44 22° SW 23:48:12 44° WNW 23:52:27 10° N
Cosmos 2237 Rocket 4.3 23:47:58 10° NNW 23:52:33 24° NE 23:57:06 10° E
COSMOS 2428 3.6 23:48:52 10° NNW 23:54:25 48° NE 23:59:55 10° SE
